AEHF-2 (USA 235)

Last updated on Wed Sep 09 2026 00:02:59 GMT+0000 (Coordinated Universal Time)

1 38254U 12019A 26251.29921920 -.00000152 00000+0 00000+0 0 9992 2 38254 6.8380 56.8221 0002502 125.2287 256.5918 1.00272089 7821
UTC large
Height (km)
Speed (km/s)
/
Latitude / Longitude
Inclination (degrees)
Orbital Period (minutes)
Azimuth
Elevation
Range (km)
Doppler Factor

Next 0 passes for location: London (51.5072 / 0.1276)

No passes found over London.
AEHF-2 (USA 235)